Weather History for Fort Myers, FL

Change the Weather History Date:

Saturday, April 27, 2013

  Actual Average Record
Temperature  
Mean Temperature 77 °F 76 °F  
Max Temperature 88 °F 87 °F 95 °F (1945)
Min Temperature 66 °F 65 °F 53 °F (1910)
Degree Days  
Heating Degree Days 0 0  
Month to date heating degree days 0 0  
Since 1 July heating degree days 201 284  
Cooling Degree Days 12 11  
Month to date cooling degree days 324 235  
Year to date cooling degree days 706 596  
Growing Degree Days 26 (Base 50)    
Moisture  
Dew Point 61 °F    
Average Humidity 62    
Maximum Humidity 93    
Minimum Humidity 37    
Precipitation  
Precipitation 0.00 in 0.06 in 2.04 in (2005)
Month to date precipitation 3.09 1.97  
Year to date precipitation 6.35 8.94  
Sea Level Pressure  
Sea Level Pressure 30.14 in    
Wind  
Wind Speed 8 mph (East)    
Max Wind Speed 17 mph    
Max Gust Speed 25 mph    
Visibility 10 miles    
Events      
T = Trace of Precipitation, MM = Missing Value Source: NWS Daily Summary

Daily Weather History Graph

Daily Weather History Graph

Search for Another Location

Airport:

Trip Planner

Search our weather history database for the weather conditions in past years. The results will help you decide how hot, cold, wet, or windy it might be!

Date:

Astronomy

Apr. 27, 2013 Rise Set
Actual Time 6:52 AM EDT 7:57 PM EDT
Civil Twilight 6:28 AM EDT 8:22 PM EDT
Nautical Twilight 5:59 AM EDT 8:50 PM EDT
Astronomical Twilight 5:30 AM EDT 9:20 PM EDT
Moon 10:15 PM EDT 8:18 AM EDT
Length of Visible Light 13h 53m
Length of Day
13h 05m
Waning Gibbous, 95% of the Moon is Illuminated
Apr 27
Waning Gibbous
May 2
Last Quarter
May 9
New
May 18
First Quarter
May 25
Full

Hourly Weather History & Observations

Time (EDT) Temp. Heat Index Dew Point Humidity Pressure Visibility Wind Dir Wind Speed Gust Speed Precip Events Conditions
12:53 AM 72.0 °F - 63.0 °F 73% 30.21 in 10.0 mi East 5.8 mph - N/A   Clear
1:53 AM 70.0 °F - 63.0 °F 78% 30.20 in 10.0 mi East 3.5 mph - N/A   Clear
2:53 AM 70.0 °F - 64.0 °F 81% 30.18 in 10.0 mi Calm Calm - N/A   Mostly Cloudy
3:53 AM 68.0 °F - 64.0 °F 87% 30.17 in 10.0 mi Calm Calm - N/A   Clear
4:53 AM 68.0 °F - 63.0 °F 84% 30.15 in 10.0 mi East 3.5 mph - N/A   Clear
5:53 AM 66.9 °F - 64.0 °F 90% 30.15 in 10.0 mi ENE 4.6 mph - N/A   Clear
6:53 AM 66.0 °F - 64.0 °F 93% 30.17 in 7.0 mi ENE 3.5 mph - N/A   Clear
7:53 AM 68.0 °F - 64.9 °F 90% 30.17 in 10.0 mi East 5.8 mph - N/A   Clear
8:53 AM 73.0 °F - 64.0 °F 73% 30.17 in 10.0 mi East 8.1 mph - N/A   Clear
9:53 AM 77.0 °F - 61.0 °F 58% 30.18 in 10.0 mi East 11.5 mph - N/A   Clear
10:53 AM 80.1 °F 81.2 °F 62.1 °F 54% 30.18 in 10.0 mi ESE 12.7 mph - N/A   Partly Cloudy
11:53 AM 82.9 °F 83.2 °F 60.1 °F 46% 30.18 in 10.0 mi East 11.5 mph - N/A   Partly Cloudy
12:53 PM 84.0 °F 83.8 °F 59.0 °F 43% 30.17 in 10.0 mi East 10.4 mph 19.6 mph N/A   Scattered Clouds
1:53 PM 84.9 °F 84.4 °F 59.0 °F 41% 30.15 in 10.0 mi East 12.7 mph 18.4 mph N/A   Mostly Cloudy
2:53 PM 86.0 °F 85.0 °F 57.9 °F 38% 30.13 in 10.0 mi East 12.7 mph 20.7 mph N/A   Scattered Clouds
3:53 PM 86.0 °F 85.4 °F 59.0 °F 40% 30.09 in 10.0 mi ESE 11.5 mph 20.7 mph N/A   Partly Cloudy
4:53 PM 86.0 °F 85.0 °F 57.9 °F 38% 30.07 in 10.0 mi East 11.5 mph - N/A   Mostly Cloudy
5:53 PM 86.0 °F 85.4 °F 59.0 °F 40% 30.07 in 10.0 mi East 17.3 mph 21.9 mph N/A   Mostly Cloudy
6:53 PM 82.9 °F 82.8 °F 59.0 °F 44% 30.07 in 10.0 mi East 11.5 mph - N/A   Partly Cloudy
7:53 PM 80.1 °F 80.9 °F 60.1 °F 50% 30.08 in 10.0 mi ESE 9.2 mph - N/A   Clear
8:53 PM 77.0 °F - 60.1 °F 56% 30.10 in 10.0 mi East 6.9 mph - N/A   Clear
9:53 PM 75.0 °F - 59.0 °F 57% 30.12 in 10.0 mi East 9.2 mph - N/A   Clear
10:53 PM 73.0 °F - 59.0 °F 61% 30.12 in 10.0 mi East 6.9 mph - N/A   Clear
11:53 PM 71.1 °F - 60.1 °F 68% 30.12 in 10.0 mi East 8.1 mph - N/A   Clear